2023/09/30 00:00:00,36.6,17.5
2023/09/30 00:10:00,36.7,17.6
2023/09/30 00:20:00,36.6,17.5
2023/09/30 00:30:00,36.7,17.6
2023/09/30 00:40:00,36.7,17.3
2023/09/30 00:50:00,36.8,17.5
2023/09/30 01:00:00,36.8,17.4
2023/09/30 01:10:00,36.9,17.5
2023/09/30 01:20:00,36.9,17.5
2023/09/30 01:30:00,36.9,17.3
2023/09/30 01:40:00,37.0,17.6
2023/09/30 01:50:00,37.0,17.3
2023/09/30 02:00:00,37.1,17.4
2023/09/30 02:10:00,37.1,17.1
2023/09/30 02:20:00,37.2,17.5
2023/09/30 02:30:00,37.1,17.3
2023/09/30 02:40:00,37.3,17.6
2023/09/30 02:50:00,36.6,17.7
2023/09/30 03:00:00,37.2,17.5
2023/09/30 03:10:00,37.2,17.5
2023/09/30 03:20:00,37.1,17.4
2023/09/30 03:30:00,37.2,17.2
2023/09/30 03:40:00,37.2,17.3
2023/09/30 03:50:00,37.2,17.5
2023/09/30 04:00:00,37.0,17.4
2023/09/30 04:10:00,36.7,17.3
2023/09/30 04:20:00,36.8,17.2
2023/09/30 04:30:00,36.7,17.2
2023/09/30 04:40:00,35.9,17.4
2023/09/30 04:50:00,33.5,17.4
2023/09/30 05:00:00,29.6,16.7
2023/09/30 05:10:00,---,17.3
2023/09/30 05:20:00,32.1,17.4
2023/09/30 05:30:00,32.6,17.1
2023/09/30 05:40:00,35.8,17.7
2023/09/30 05:50:00,35.7,17.0
2023/09/30 06:00:00,35.4,17.3
2023/09/30 06:10:00,35.5,17.2
2023/09/30 06:20:00,35.6,17.1
2023/09/30 06:30:00,35.6,17.2
2023/09/30 06:40:00,35.6,16.7
2023/09/30 06:50:00,35.3,17.4
2023/09/30 07:00:00,35.3,17.6
2023/09/30 07:10:00,35.5,17.7
2023/09/30 07:20:00,35.6,18.0
2023/09/30 07:30:00,35.6,18.1
2023/09/30 07:40:00,35.8,18.2
2023/09/30 07:50:00,36.0,18.7
2023/09/30 08:00:00,36.1,19.3
2023/09/30 08:10:00,36.2,20.0
2023/09/30 08:20:00,36.4,20.4
2023/09/30 08:30:00,36.4,20.9
2023/09/30 08:40:00,36.2,21.4
2023/09/30 08:50:00,36.3,22.1
2023/09/30 09:00:00,36.1,22.9
2023/09/30 09:10:00,36.1,23.9
2023/09/30 09:20:00,36.0,25.1
2023/09/30 09:30:00,37.6,25.3
2023/09/30 09:40:00,38.6,25.6
2023/09/30 09:50:00,38.5,26.8
2023/09/30 10:00:00,37.9,27.1
2023/09/30 10:10:00,38.1,27.7
2023/09/30 10:20:00,37.3,28.3
2023/09/30 10:30:00,35.8,28.3
2023/09/30 10:40:00,38.1,28.6
2023/09/30 10:50:00,28.8,28.2
2023/09/30 11:00:00,19.9,28.4
2023/09/30 11:10:00,---,29.6
2023/09/30 11:20:00,---,29.5
2023/09/30 11:30:00,37.9,29.7
2023/09/30 11:40:00,38.2,28.4
2023/09/30 11:50:00,38.4,28.2
2023/09/30 12:00:00,38.4,27.5
2023/09/30 12:10:00,38.6,27.6
2023/09/30 12:20:00,38.5,27.5
2023/09/30 12:30:00,38.8,26.8
2023/09/30 12:40:00,39.0,26.8
2023/09/30 12:50:00,39.0,26.4
2023/09/30 13:00:00,38.9,26.9
2023/09/30 13:10:00,38.9,26.6
2023/09/30 13:20:00,38.9,25.7
2023/09/30 13:30:00,39.0,25.7
2023/09/30 13:40:00,38.6,27.4
2023/09/30 13:50:00,38.6,27.0
2023/09/30 14:00:00,38.8,27.2
2023/09/30 14:10:00,38.5,29.0
2023/09/30 14:20:00,38.8,28.5
2023/09/30 14:30:00,38.8,28.6
2023/09/30 14:40:00,39.1,26.8
2023/09/30 14:50:00,39.2,26.8
2023/09/30 15:00:00,39.3,26.4
2023/09/30 15:10:00,39.3,25.7
2023/09/30 15:20:00,39.4,25.5
2023/09/30 15:30:00,39.3,25.0
2023/09/30 15:40:00,39.3,25.0
2023/09/30 15:50:00,39.0,24.6
2023/09/30 16:00:00,39.3,24.1
2023/09/30 16:10:00,39.6,23.7
2023/09/30 16:20:00,39.2,23.4
2023/09/30 16:30:00,38.3,23.1
2023/09/30 16:40:00,37.2,22.7
2023/09/30 16:50:00,35.1,22.2
2023/09/30 17:00:00,35.0,21.9
2023/09/30 17:10:00,35.0,21.6
2023/09/30 17:20:00,34.9,21.5
2023/09/30 17:30:00,33.1,21.3
2023/09/30 17:40:00,33.6,21.2
2023/09/30 17:50:00,33.8,21.0
2023/09/30 18:00:00,33.8,20.9
2023/09/30 18:10:00,33.5,20.8
2023/09/30 18:20:00,34.2,20.5
2023/09/30 18:30:00,34.4,20.3
2023/09/30 18:40:00,33.4,20.0
2023/09/30 18:50:00,33.8,19.8
2023/09/30 19:00:00,33.8,19.9
2023/09/30 19:10:00,---,19.7
2023/09/30 19:20:00,28.9,19.4
2023/09/30 19:30:00,34.6,19.7
2023/09/30 19:40:00,23.4,19.2
2023/09/30 19:50:00,34.4,19.2
2023/09/30 20:00:00,34.1,19.4
2023/09/30 20:10:00,34.8,19.4
2023/09/30 20:20:00,36.0,19.4
2023/09/30 20:30:00,36.0,19.4
2023/09/30 20:40:00,36.1,19.3
2023/09/30 20:50:00,36.2,19.4
2023/09/30 21:00:00,36.2,19.7
2023/09/30 21:10:00,36.1,19.4
2023/09/30 21:20:00,35.7,19.1
2023/09/30 21:30:00,34.4,19.4
2023/09/30 21:40:00,33.6,19.4
2023/09/30 21:50:00,33.9,19.2
2023/09/30 22:00:00,33.9,19.2
2023/09/30 22:10:00,33.7,19.0
2023/09/30 22:20:00,33.5,19.1
2023/09/30 22:30:00,34.0,19.0
2023/09/30 22:40:00,34.1,19.0
2023/09/30 22:50:00,35.4,19.1
2023/09/30 23:00:00,35.8,19.0
2023/09/30 23:10:00,36.0,19.0
2023/09/30 23:20:00,36.1,19.0
2023/09/30 23:30:00,36.1,19.0
2023/09/30 23:40:00,36.2,19.1
2023/09/30 23:50:00,36.3,19.1
